Location: Chaumontel
(49.1247°N, 2.4324°E)
Time: 08:12:08
(UTC+00:00)

IRIDIUM 103 - Pass Details

Date: 14 May 2025
Orbit: 775 x 780 km, 86.4° (Epoch: 20 June)

Event Time Altitude Azimuth Distance (km) Brightness Sun altitude
Exits shadow 02:01:07 26° 209° (SSW) 1,505 5.2 -15.9°
Maximum altitude 02:03:58 57° 278° (W) 920 4.5 -15.7°
Drops below altitude 10° 02:09:08 10° 357° (N) 2,345 7.6 -15.2°
Sets 02:11:33 0° 1° (N) 3,277 8.5 -15.0°
